Weather in Ksen'evka

Russia / Zabaykalsky Krai     53°33′30″N   118°43′27″E
temp.,
°C
wind,
m/s
gust,
m/s
humid.,
%
clouds,
%
prec.,
mm/h
press.,
hPa
HPBL,
m
2 march, tue
tue200:00−28s019913 0.0 102919
03:00−28sse0110051 0.0 102819
06:00−27se0199100 0.1 102620
09:00−25sse1198100 0.2 102462
12:00−20ssw2388100 0.1 1022437
15:00−18ssw2486100 0.1 1018598
18:00−18sse2392100 0.1 1016294
21:00−20ese1299100 0.2 101725
3 march, wed
wed300:00−20ese1199100 0.5 101623
03:00−23se1199100 0.6 101520
06:00−23ene1199100 0.1 101520
09:00−23ne1197100 0.2 101644
12:00−17ese0183100 0.0 1015475
15:00−14ssw1180100 0.1 1012672
18:00−16sse1194100 0.1 101249
21:00−19e1196100 0.1 101420
4 march, thu
thu400:00−22ene119898 0.0 101420
03:00−23nne229899 0.1 101535
06:00−24n2299100 0.3 101765
09:00−24n2497100 0.4 1021191
12:00−21n3685100 0.1 1023820
15:00−19n3577100 0.1 10251306
18:00−21nne2584100 0.1 1028269
21:00−28ne118982 0.1 103419
5 march, fri
fri500:00−29nne119289 0.0 103719
03:00−32nnw119863 0.0 104119
06:00−33nnw11960 0.0 104319
09:00−31nnw11900 0.0 104536
12:00−22w12760 0.0 1042358
15:00−19sw23730 0.0 1040690
18:00−20s22869 0.0 103850
21:00−25ssw229624 0.0 104019
6 march, sat
sat600:00−29ssw119811 0.0 104019
03:00−30w01986 0.0 103919
06:00−29sw019685 0.0 103819
09:00−27sw119678 0.0 103834
12:00−18sw118237 0.0 1033360
15:00−16sw228059 0.0 1030450
18:00−17ssw1392100 0.0 1028315
21:00−18ssw1196100 0.0 102820